GFSWCAN_500_rhum_231.txt.gz
RH
46 44 37 20 15 24 27 30 34 52 57 84 85 82 77 77 68 64 57 50 45 44 46 40 46 55 51 47 44 42 45 49 44 51 48 41 21 14 52 60 70 95 92 89 85 70 62 81 95 86 70 51 52 53
40 41 37 21 18 26 29 32 37 59 63 86 92 81 76 78 66 67 63 54 50 46 49 43 43 56 53 52 52 47 46 44 41 44 47 50 30 13 19 45 78 84 94 79 92 64 95 99 100 98 90 54 45 46
32 33 31 20 23 30 32 33 42 68 70 91 97 84 77 75 65 66 66 58 56 55 54 52 48 47 44 56 59 51 46 40 44 37 45 52 46 16 18 41 65 82 100 88 85 84 84 92 100 100 94 65 41 35
27 28 26 24 29 34 34 36 52 76 78 97 98 86 88 73 62 65 72 66 60 56 57 56 47 41 41 54 63 55 52 43 38 38 40 54 48 25 15 29 54 98 93 91 63 52 56 98 100 90 86 73 53 48
26 27 29 31 36 37 36 43 68 83 90 99 100 93 97 77 60 59 76 72 61 54 61 66 65 60 55 73 69 56 58 51 40 36 38 52 54 34 18 36 63 100 76 75 50 60 48 78 87 100 82 84 80 58
34 36 40 43 41 39 41 61 84 92 100 100 100 97 100 85 67 60 69 76 60 48 60 66 63 62 75 71 61 60 62 58 49 38 40 59 48 31 18 20 88 100 90 84 61 62 57 69 80 100 86 99 83 73
50 53 54 51 48 49 69 88 99 100 100 100 100 100 100 87 73 64 66 62 66 74 71 71 56 59 73 63 55 60 68 68 53 40 45 54 54 38 22 13 97 100 77 80 73 52 44 50 52 83 82 83 77 81
71 72 69 70 71 86 99 100 100 100 100 100 100 100 100 85 78 71 50 72 78 77 76 75 63 75 80 66 64 70 71 65 53 45 45 55 55 53 44 37 35 60 76 91 87 79 61 49 53 70 54 73 79 85
95 97 98 100 100 100 100 100 100 100 100 100 100 100 96 85 75 73 60 64 84 92 83 78 81 74 67 62 68 75 74 70 58 44 52 52 57 58 41 40 44 45 43 62 80 85 84 78 72 78 57 61 72 96
100 100 100 100 100 100 100 100 100 100 100 100 100 100 90 84 75 76 79 80 84 94 87 96 95 87 65 60 66 76 77 66 57 50 51 59 63 55 48 54 70 100 98 89 72 89 95 97 86 76 64 63 73 80
100 100 100 100 100 100 100 100 100 100 100 100 100 96 84 72 73 82 85 93 89 86 93 99 92 68 64 72 79 79 82 73 65 62 59 50 46 59 67 72 85 100 100 96 97 78 81 78 70 60 62 66 80 68
100 100 100 100 100 100 100 100 100 100 100 100 100 95 91 88 80 79 82 88 94 98 86 81 74 70 66 76 79 84 83 80 74 82 71 49 41 51 60 62 48 43 70 98 98 85 75 76 67 57 68 72 79 82
100 100 100 100 100 100 100 100 100 100 100 100 99 93 89 96 94 90 96 96 99 94 87 85 81 72 77 88 88 94 85 84 83 97 100 86 48 50 54 65 59 45 59 91 94 79 80 78 70 73 86 97 92 95
100 100 100 100 100 100 100 100 100 100 100 100 100 92 90 89 89 100 100 100 95 95 89 82 85 80 88 96 100 100 96 90 91 98 100 93 56 53 49 64 61 52 44 52 72 71 78 87 87 97 100 100 100 93
100 100 100 100 100 100 100 100 100 100 96 96 94 90 79 88 100 100 100 100 99 96 84 82 86 89 92 96 96 97 100 98 100 100 100 95 70 47 44 58 64 55 51 47 44 59 71 88 99 100 100 100 100 96
100 100 100 100 100 100 100 100 100 97 92 85 72 75 86 100 100 100 98 96 95 88 88 89 92 89 89 100 98 100 100 100 100 98 96 86 74 51 41 47 66 58 44 40 22 43 62 87 100 100 100 100 100 99
100 100 100 100 100 100 100 98 92 89 78 67 79 100 100 100 100 100 91 90 87 88 87 99 98 100 99 91 93 100 100 100 96 98 88 92 84 49 40 41 61 69 64 57 23 42 70 91 100 100 100 100 100 100
100 99 100 98 95 98 98 97 100 93 82 82 90 100 100 100 100 100 100 98 91 85 84 90 92 86 91 94 100 100 100 95 91 89 95 100 91 52 36 40 51 69 68 63 36 26 85 100 100 100 100 100 100 100
96 100 100 100 100 100 100 100 99 91 89 94 98 100 100 100 100 99 100 99 92 87 83 81 81 66 79 95 100 100 100 98 91 94 100 100 99 52 32 34 36 55 70 72 62 22 71 100 100 100 99 100 100 100
100 100 100 100 100 100 100 95 95 90 80 91 100 100 98 100 100 97 93 93 94 88 78 72 77 88 88 89 92 91 94 94 89 91 98 100 100 67 26 28 36 47 58 73 66 19 43 99 100 100 100 99 100 100
100 100 100 100 100 100 95 85 78 75 89 95 94 95 96 88 83 83 84 84 79 76 77 80 79 77 75 75 81 87 88 92 94 89 95 95 88 88 35 24 31 44 57 67 62 26 14 68 100 100 100 100 100 100
100 100 100 99 95 86 80 70 76 89 90 88 87 87 74 71 70 70 67 66 64 62 59 57 56 56 57 59 60 63 70 81 88 86 91 100 98 83 50 24 23 35 67 80 61 29 17 16 64 99 100 100 100 100
100 100 100 97 91 77 73 91 95 92 82 74 75 68 65 61 58 54 51 48 44 40 37 35 35 35 37 38 40 39 38 48 63 73 83 90 94 91 69 31 21 36 69 84 53 28 29 30 28 54 81 95 99 98
100 100 100 89 83 85 86 97 93 87 76 73 67 61 58 54 49 44 39 34 30 26 23 21 20 20 22 26 27 25 22 24 31 44 67 73 73 56 43 37 21 33 69 86 47 33 42 48 60 58 71 72 81 99
98 98 86 81 84 91 96 91 83 76 68 60 55 46 38 34 31 28 25 20 18 16 13 11 10 8 8 8 9 15 18 16 13 18 33 59 48 40 38 26 22 30 64 83 46 39 48 52 56 73 85 93 90 92
97 96 84 82 88 86 81 74 64 55 48 42 36 32 27 24 21 18 17 15 13 11 11 10 9 8 7 5 5 6 6 10 14 10 14 29 35 29 28 25 26 38 62 82 41 42 52 56 63 80 95 100 100 100
89 88 86 87 83 77 68 59 52 44 37 31 26 21 18 16 15 18 19 19 24 33 32 27 29 26 24 18 8 5 6 4 5 5 6 14 24 25 25 25 33 40 73 76 43 45 52 60 74 82 90 99 100 100
77 78 75 63 57 51 45 40 34 28 24 22 22 25 30 31 38 42 41 42 53 65 58 54 62 70 69 94 39 15 10 6 4 4 5 9 17 21 22 27 33 65 97 68 45 47 54 59 78 85 90 98 100 100
60 50 43 37 34 30 27 25 24 23 29 34 40 59 69 78 61 53 59 75 80 64 62 77 96 99 100 100 100 100 89 46 8 6 7 10 17 35 36 53 74 97 100 73 58 55 55 62 64 62 73 85 94 98
30 25 23 22 22 24 26 27 30 30 46 85 100 100 99 85 68 70 86 88 83 61 60 84 100 99 100 100 100 100 100 87 91 71 83 72 94 100 95 100 100 100 100 88 80 83 85 68 58 61 60 57 52 48
20 21 21 24 31 38 34 39 52 66 75 100 100 100 99 90 76 77 84 81 75 64 59 81 100 100 98 100 100 100 100 100 100 100 100 99 99 100 100 100 100 98 100 100 100 100 100 90 76 62 51 43 41 43
35 38 41 42 55 63 64 86 98 100 100 100 100 100 100 99 79 96 74 83 64 52 52 79 100 100 98 99 100 100 100 100 100 100 100 100 100 100 100 100 100 100 90 93 100 100 100 100 100 100 100 100 99 65
45 47 51 53 54 73 97 99 100 100 100 100 100 100 100 100 93 81 78 80 73 59 45 68 100 100 100 100 100 100 100 100 100 100 100 100 100 100 100 100 100 100 98 98 100 97 92 94 96 94 95 96 80 56

GFSWCAN_500_rhum_234.txt.gz
RH
13 15 23 35 46 50 45 36 17 17 25 27 30 40 48 68 77 75 70 58 63 66 60 53 51 49 43 39 37 50 51 49 49 41 36 39 48 52 45 20 21 57 62 73 76 66 65 66 86 72 77 72 78 64
24 12 17 30 41 47 42 37 21 19 26 29 31 41 51 65 80 74 74 61 59 68 68 62 54 54 49 41 43 51 49 46 56 50 39 35 41 50 46 26 22 34 51 60 68 62 80 85 75 92 89 53 68 70
53 15 14 24 36 39 36 33 23 21 27 31 31 40 54 68 84 80 83 64 51 58 69 70 62 56 59 50 48 49 49 45 58 58 46 38 34 38 47 44 22 25 50 59 70 89 67 77 99 96 90 73 68 74
77 22 15 20 30 30 28 26 23 25 29 31 32 42 60 72 86 85 91 72 53 48 63 70 70 58 60 61 58 50 41 46 58 62 56 42 34 30 41 39 40 29 42 69 64 78 58 64 75 74 75 97 95 90
88 30 19 21 25 25 23 24 26 32 33 33 36 45 66 80 86 89 95 84 62 52 58 91 81 64 60 64 61 58 47 49 59 66 65 44 38 32 32 31 30 24 44 75 59 67 48 54 56 59 55 82 91 77
93 38 23 23 23 22 23 26 33 39 40 39 44 59 76 88 86 91 96 91 70 56 45 84 96 75 74 68 63 60 57 53 52 62 62 48 43 36 34 34 24 28 72 90 69 70 62 61 52 61 47 56 76 88
88 43 30 27 26 27 30 36 44 48 46 51 62 73 89 93 95 96 91 79 76 60 46 51 88 84 78 73 68 64 58 51 51 54 62 56 47 41 38 56 42 31 35 93 83 66 64 67 55 61 52 49 47 61
82 48 38 34 34 38 43 51 58 56 58 70 77 92 98 96 100 97 86 92 78 61 54 58 84 85 81 75 71 67 62 52 57 66 66 57 51 48 39 43 58 57 52 50 62 70 66 58 63 61 57 45 37 50
85 58 48 47 48 52 59 65 69 68 73 94 100 100 98 100 99 96 89 86 78 68 60 69 82 88 85 84 80 77 62 56 62 74 67 59 63 57 44 37 44 47 51 60 66 81 87 66 64 59 56 53 44 50
96 77 63 60 65 70 72 72 87 100 100 100 100 100 100 100 97 94 88 82 76 71 63 78 75 85 75 82 78 72 63 62 60 74 70 69 79 67 46 39 51 61 60 54 70 78 88 100 93 87 75 62 55 51
100 98 91 87 88 92 100 100 100 98 100 100 100 100 100 100 99 95 85 84 78 67 64 81 79 82 91 88 77 68 63 58 62 76 78 84 89 83 47 44 52 64 60 49 39 52 71 82 79 81 76 59 57 72
100 100 100 100 100 100 100 100 100 100 100 100 100 100 100 99 98 96 88 90 85 74 73 74 79 89 91 84 78 72 69 60 77 84 90 98 100 100 65 43 40 51 55 52 45 50 83 91 78 82 68 68 83 94
100 100 100 100 100 100 100 100 100 100 100 100 100 100 100 98 86 88 97 88 78 71 71 73 86 86 88 84 80 80 71 65 71 74 82 98 100 100 78 52 43 47 56 55 42 36 50 74 71 83 72 97 100 100
100 100 100 100 100 100 100 100 100 100 100 100 100 100 100 94 92 100 99 87 73 66 68 79 89 83 88 88 89 86 90 70 65 70 87 100 100 100 92 65 46 46 61 58 42 31 25 56 70 85 86 100 100 100
100 100 100 100 100 100 100 100 100 100 100 100 100 95 86 99 100 100 94 82 72 73 79 86 96 95 96 92 93 98 94 94 91 92 100 98 100 100 98 76 53 44 50 62 50 52 23 43 74 86 99 100 100 100
100 100 100 100 100 100 100 100 100 100 100 98 86 87 97 100 100 98 89 87 80 84 90 93 94 92 90 99 95 99 100 100 100 90 86 90 92 98 100 91 64 43 39 60 66 57 24 48 71 90 99 100 100 100
100 100 100 100 100 100 100 100 100 100 98 81 87 100 100 100 99 92 88 86 80 83 90 92 93 96 98 97 93 100 100 100 90 90 84 91 100 100 100 100 78 41 37 51 65 60 35 42 80 90 99 99 100 100
100 100 100 100 100 100 100 100 100 91 83 80 84 100 100 100 100 100 96 90 85 83 87 84 82 78 81 85 100 100 100 100 91 92 100 100 100 96 99 100 91 42 36 47 71 68 58 23 90 100 100 100 100 100
100 100 100 100 100 100 100 99 88 75 78 85 100 100 100 100 100 100 97 95 87 83 76 75 76 68 77 96 100 100 95 94 93 88 90 100 100 92 93 100 97 53 32 38 66 72 66 22 54 98 100 100 100 100
100 98 98 100 100 100 100 94 98 98 92 100 100 100 100 100 98 94 94 95 92 86 78 75 80 88 90 79 79 85 92 94 96 88 84 97 100 95 96 99 98 70 29 30 40 69 72 39 14 74 98 100 100 100
100 100 100 100 100 100 97 94 98 95 94 100 100 100 97 92 94 99 99 95 87 85 86 83 76 73 70 69 72 73 74 77 79 83 80 88 100 90 95 99 96 75 29 28 33 54 69 48 18 15 69 100 100 100
100 100 100 100 100 100 97 93 94 99 100 93 88 91 82 87 94 95 90 87 78 71 65 62 60 60 60 60 59 57 55 55 57 59 63 70 89 100 96 99 96 90 41 28 29 49 66 52 23 18 19 66 98 99
100 100 100 100 97 94 86 92 92 98 97 90 95 90 88 87 85 80 75 69 64 60 57 54 51 49 46 42 40 38 38 37 39 43 49 56 70 85 97 100 100 93 64 25 26 58 66 50 32 28 30 35 74 94
100 97 96 89 83 77 87 100 100 99 90 90 84 79 78 76 70 64 60 58 56 52 47 42 38 35 32 30 27 25 25 28 30 31 33 36 43 60 79 94 98 98 88 35 26 50 70 52 35 33 49 48 56 74
95 100 94 92 97 99 100 100 100 94 93 85 75 72 74 65 59 55 52 46 40 36 31 28 25 22 20 16 14 13 12 13 13 14 17 27 26 32 52 77 88 82 67 29 28 43 71 51 35 40 44 56 64 80
97 97 89 90 100 100 100 100 96 88 83 80 76 71 66 60 55 49 41 32 29 25 21 17 14 12 11 10 9 8 7 7 8 8 7 17 22 18 26 61 66 64 51 27 24 54 68 42 41 44 50 60 74 91
96 93 98 100 100 98 95 90 86 81 78 74 69 62 56 50 45 34 28 24 20 18 16 14 13 13 13 13 10 9 8 6 4 4 4 6 16 16 14 42 49 35 40 30 41 74 60 40 47 52 59 65 83 94
99 100 100 100 94 87 83 79 77 72 66 60 52 42 36 32 30 29 26 24 24 23 22 20 18 16 18 24 32 34 50 30 13 6 4 3 5 12 11 20 33 30 28 33 72 78 49 44 50 62 67 82 84 95
90 92 92 88 81 76 69 63 57 50 43 37 32 28 25 24 26 30 31 33 35 33 30 27 28 26 28 57 80 100 100 99 94 47 12 4 4 5 7 15 24 26 28 50 94 70 47 47 57 63 75 85 91 85
77 74 69 62 55 47 38 34 31 28 26 26 26 27 30 44 54 57 64 63 53 42 40 50 57 47 58 86 98 100 100 100 81 36 10 6 6 7 12 22 27 33 48 89 100 67 54 56 61 61 63 62 56 57
60 52 43 32 24 23 22 23 24 24 26 27 30 41 68 89 88 91 92 77 62 56 63 64 51 55 82 93 99 100 100 97 100 99 100 96 30 36 88 100 100 99 100 100 100 79 68 68 74 76 68 62 61 60
19 20 20 21 24 28 32 36 41 40 39 39 52 79 100 100 100 94 91 73 69 70 71 64 51 71 100 100 100 100 100 100 99 100 100 99 100 100 100 81 74 100 100 100 100 98 90 93 100 100 87 79 76 77
25 28 31 35 39 41 41 42 51 57 62 69 84 93 100 100 100 100 99 79 81 83 80 66 46 73 100 100 100 100 100 100 93 100 100 100 100 100 100 100 100 100 100 100 100 100 100 100 98 96 90 91 94 94

GFSWCAN_500_rhum_240.txt.gz
RH
48 38 54 73 72 30 27 34 38 41 45 48 52 55 49 36 15 19 30 29 27 41 50 58 66 65 64 52 49 54 49 53 54 52 52 46 45 37 32 44 46 42 38 63 63 84 99 87 86 73 68 73 56 60
57 47 52 72 80 74 31 28 34 36 38 43 47 52 51 41 24 15 29 29 30 32 45 55 70 71 76 64 55 55 52 48 58 58 54 52 51 46 38 42 49 45 43 40 39 34 51 84 100 71 56 44 42 47
68 60 58 72 81 88 79 33 28 30 32 35 42 47 51 43 30 17 21 30 31 30 35 49 61 70 82 73 58 64 53 46 52 62 59 57 53 50 41 49 47 49 48 41 33 40 33 35 77 48 46 49 40 34
80 74 77 80 84 88 96 88 37 26 26 29 33 41 47 44 32 22 20 28 31 31 30 38 59 79 89 86 81 68 45 40 46 64 62 62 52 46 39 46 52 46 48 44 38 42 27 24 31 45 60 70 56 41
94 88 89 98 95 93 99 100 97 42 24 24 26 32 39 41 32 24 22 30 34 32 34 40 45 69 82 89 83 72 52 48 46 52 62 66 57 41 41 50 55 50 52 48 40 49 51 49 50 54 68 68 68 59
100 100 100 100 100 100 100 100 100 96 40 23 24 28 30 35 31 23 22 34 38 34 31 41 53 70 82 80 81 84 68 55 48 56 65 67 56 46 37 51 48 49 54 52 40 47 66 66 49 53 63 76 78 79
100 100 100 100 100 100 100 100 100 100 89 36 25 83 48 29 28 24 23 34 38 37 37 40 56 85 82 76 75 79 68 53 48 51 58 63 57 42 41 49 56 56 61 59 44 99 96 100 75 54 45 51 46 47
100 100 100 100 100 100 100 100 100 100 100 77 29 24 23 25 26 20 23 34 42 38 40 42 76 85 84 76 77 77 67 48 45 44 49 55 51 52 48 46 49 60 72 90 63 43 46 52 49 45 39 37 58 97
100 100 100 100 100 100 100 100 100 100 100 92 59 30 23 22 20 21 27 36 41 45 50 53 97 88 84 78 75 74 63 49 45 49 47 47 53 52 52 49 41 62 79 74 53 42 39 42 39 40 38 39 61 89
100 100 100 100 100 100 100 100 100 100 100 97 80 46 26 22 24 25 31 42 46 47 52 75 98 87 80 82 78 72 62 55 47 47 46 45 47 52 57 54 54 54 89 84 72 50 42 46 44 26 16 33 58 74
100 100 100 100 100 100 100 100 100 100 100 97 91 64 37 28 28 32 41 46 49 48 57 92 97 97 85 89 85 74 65 55 48 49 50 39 46 67 62 58 71 90 94 86 71 58 40 37 41 26 22 24 62 65
100 100 100 100 100 100 100 100 100 98 100 100 93 67 46 41 40 45 47 53 54 58 79 98 100 100 94 92 84 73 65 55 48 64 55 44 82 81 83 100 100 86 91 80 73 65 56 36 40 46 34 33 62 83
100 100 100 100 100 100 100 100 100 100 100 100 99 93 79 61 56 53 61 70 80 97 89 98 94 93 93 88 78 69 60 53 56 52 53 66 94 94 86 96 99 89 90 83 75 71 60 39 34 48 26 49 84 100
100 100 100 100 100 100 100 100 100 100 100 100 100 96 94 84 80 84 97 92 90 100 100 100 100 100 93 85 73 65 61 56 52 53 76 84 100 100 100 100 100 92 90 85 79 69 61 48 36 50 26 49 94 100
100 100 100 100 100 100 100 100 100 100 100 100 100 100 94 100 93 87 98 99 100 100 100 100 100 99 95 81 69 63 62 60 68 91 96 100 100 100 100 100 100 98 91 76 80 74 62 61 36 51 36 54 93 100
100 100 100 100 100 100 100 100 100 100 100 100 97 88 84 88 95 100 100 100 100 100 100 100 100 99 99 81 73 77 81 94 99 98 99 84 77 85 100 96 91 78 71 71 74 70 64 65 40 43 47 48 98 100
100 100 100 100 100 100 100 100 100 99 95 86 82 93 97 100 100 100 100 100 100 100 100 100 98 100 97 89 95 100 100 95 89 90 83 82 71 76 86 84 75 61 60 72 87 80 68 70 53 35 53 35 91 100
100 100 100 100 100 100 100 95 97 98 92 86 94 100 100 100 100 100 100 100 100 100 100 100 97 90 83 89 100 100 100 100 90 76 76 80 77 68 69 67 58 53 67 76 87 81 71 74 65 32 44 46 45 100
100 100 100 100 100 100 93 92 96 97 94 98 99 100 100 100 100 100 100 100 100 100 100 96 85 80 97 100 96 99 96 87 80 85 94 100 100 95 80 73 78 74 75 79 86 80 74 75 75 34 30 51 40 55
100 100 100 100 100 100 100 100 100 100 100 100 100 100 100 97 96 94 98 100 100 97 92 85 93 100 100 100 89 73 72 77 82 83 76 67 69 78 78 73 70 69 73 76 81 80 76 75 83 48 28 34 54 31
100 100 100 100 100 100 100 100 100 99 98 100 100 100 98 99 98 95 92 92 90 84 87 98 100 99 92 81 71 66 66 71 73 66 64 62 61 61 58 58 60 55 58 66 74 80 75 80 85 60 29 27 44 48
100 100 100 100 99 100 100 100 100 100 100 100 100 98 97 94 93 93 92 90 91 98 100 99 91 80 69 63 59 58 61 64 64 60 54 48 44 44 46 49 50 51 55 59 63 73 76 82 85 68 31 25 38 45
100 100 100 100 100 100 100 100 100 100 100 100 100 99 95 95 96 96 92 94 92 88 81 78 74 69 66 63 65 66 62 57 52 49 47 44 41 39 39 40 40 41 41 45 52 60 74 81 86 78 34 25 38 46
100 100 100 100 100 100 94 100 100 100 100 96 97 99 96 96 95 94 83 78 71 64 71 72 69 67 65 62 60 55 50 46 42 44 43 38 33 30 29 29 29 30 32 34 40 51 69 82 89 88 46 24 40 51
99 100 97 95 95 98 100 100 100 100 100 100 100 99 99 95 90 78 72 75 71 68 71 68 65 64 61 57 52 48 46 42 41 39 35 31 27 24 24 25 25 25 24 27 32 41 60 84 99 95 54 26 39 53
100 100 100 99 100 100 100 100 100 100 97 94 89 86 85 84 82 77 74 72 71 68 64 61 59 56 54 51 49 46 42 38 34 32 27 24 20 18 18 15 15 14 19 20 25 34 52 83 100 95 68 33 49 50
100 98 100 100 100 100 100 97 93 90 87 86 93 90 87 82 77 70 68 69 63 60 56 55 54 52 50 47 43 39 36 32 29 24 19 14 12 12 12 11 10 8 13 15 17 29 45 84 96 97 55 44 52 37
100 100 100 100 100 98 95 89 87 90 88 86 84 85 82 74 69 64 62 59 57 56 54 53 50 47 44 40 36 32 27 23 19 15 12 9 7 7 6 6 6 6 8 10 14 27 38 83 99 74 43 56 44 39
100 100 100 100 94 88 90 90 91 89 85 82 82 82 73 64 67 66 66 61 57 54 53 51 46 40 35 31 26 22 19 15 12 9 7 7 8 8 5 7 6 5 6 6 14 22 35 87 82 49 57 50 42 47
100 100 99 93 91 90 91 86 90 86 73 74 71 70 69 64 63 60 56 53 50 44 38 33 28 24 20 18 16 14 12 10 8 7 10 50 75 67 58 41 19 7 5 7 14 19 54 85 65 65 59 46 56 58
99 98 90 84 84 91 87 79 75 74 74 74 70 68 63 55 52 50 45 39 33 27 22 19 20 20 19 20 17 14 15 13 10 49 68 69 84 93 51 19 13 6 5 10 15 31 57 71 87 75 51 54 65 70
86 82 80 75 74 71 65 66 66 62 59 52 45 36 26 19 15 13 19 17 17 18 18 20 26 37 40 34 30 27 26 26 49 76 84 100 100 100 86 24 12 6 7 12 28 58 95 100 95 62 57 64 66 65
52 47 40 32 26 22 19 18 18 18 18 17 16 16 16 18 21 19 26 26 26 28 28 34 47 60 55 45 41 39 55 92 100 95 96 100 98 100 79 15 10 11 24 66 100 100 100 100 87 67 65 65 63 64

GFSWCAN_500_rhum_246.txt.gz
RH
56 38 32 81 17 41 56 53 73 84 52 41 43 62 67 61 46 44 46 48 50 46 34 15 19 27 26 29 34 36 37 44 47 60 60 50 39 35 34 36 24 20 21 28 31 31 30 34 43 40 37 36 33 46
97 96 42 100 50 52 68 61 76 92 74 47 44 54 65 66 54 47 48 50 52 51 43 20 16 24 26 28 30 30 32 34 39 57 74 57 45 40 33 41 28 23 20 29 31 40 31 32 42 43 38 30 26 24
74 57 61 100 92 66 80 70 80 100 94 60 52 53 61 67 61 53 51 52 55 55 44 38 17 19 32 27 31 30 32 32 38 50 72 70 56 51 36 37 37 23 25 28 30 35 29 29 36 48 43 34 28 38
80 86 92 100 100 90 95 78 85 100 100 84 74 54 58 64 63 58 56 56 58 57 49 41 25 19 24 30 31 31 31 33 38 40 65 76 67 60 36 40 36 23 30 33 40 33 34 38 35 50 54 56 65 74
100 100 90 100 100 99 100 87 93 100 100 99 94 70 55 58 60 60 58 58 58 56 50 44 35 26 22 29 32 35 34 33 38 43 62 69 71 63 44 40 33 25 23 26 36 37 36 40 63 74 64 50 43 37
100 100 74 100 100 100 100 100 100 100 100 100 100 94 64 52 55 60 58 55 54 54 54 50 39 29 26 28 32 31 33 37 45 50 70 71 65 61 45 42 32 30 24 23 32 40 38 30 32 53 61 53 42 36
100 100 99 100 100 100 100 100 100 100 100 100 100 100 88 60 48 52 57 46 45 45 47 43 42 35 27 23 30 36 38 42 51 59 75 71 68 59 49 43 38 29 25 23 25 38 38 34 48 55 51 49 45 34
100 99 100 100 100 100 100 100 100 100 100 100 100 100 95 70 48 42 45 46 50 47 39 39 38 34 34 34 36 40 40 41 59 66 78 74 67 62 55 48 38 30 25 23 25 35 40 39 49 50 55 57 52 42
100 100 100 100 100 100 100 100 100 100 100 100 100 100 98 87 56 40 37 37 37 39 35 34 30 26 39 36 37 39 38 44 60 72 74 74 71 67 59 50 42 30 26 25 28 41 45 52 68 70 62 60 51 46
98 99 100 100 100 100 100 100 100 100 100 100 99 98 91 94 75 46 36 32 31 30 41 45 27 32 49 38 34 38 43 51 64 74 76 78 77 70 60 49 39 30 27 33 34 44 67 71 58 70 73 57 50 44
84 100 100 100 100 100 100 100 100 100 100 97 96 96 97 100 93 77 60 50 41 34 28 28 42 90 88 41 30 40 44 52 64 75 81 80 85 71 57 45 37 33 32 42 53 63 100 70 50 70 72 68 54 47
100 100 100 100 100 100 100 100 100 91 88 91 98 100 100 100 98 94 87 80 75 58 41 36 65 93 57 29 35 46 53 55 69 80 82 84 81 67 54 44 38 40 45 56 58 70 84 72 51 61 71 65 49 50
100 100 100 100 100 100 100 100 97 100 100 100 100 100 100 97 92 81 73 68 74 80 60 60 65 69 54 43 50 59 64 67 74 78 80 83 76 62 49 44 54 75 98 91 82 94 90 71 68 86 78 59 48 51
100 100 100 100 100 100 100 100 100 100 100 100 99 99 100 88 80 75 85 100 100 99 99 98 93 80 70 67 82 83 87 86 79 78 86 83 76 60 49 46 54 76 97 88 100 98 90 93 99 94 66 50 52 53
100 100 100 100 100 100 100 100 100 100 100 99 98 100 95 87 82 90 99 100 100 100 100 100 100 97 92 90 93 94 94 84 78 86 92 89 72 60 53 55 78 90 88 80 88 89 87 73 76 57 59 54 57 60
100 100 100 100 100 100 100 100 100 100 100 100 100 92 91 91 98 100 100 100 100 100 100 100 98 96 96 94 93 95 87 80 83 96 97 88 76 67 69 73 78 90 100 98 81 64 66 65 64 72 68 66 64 63
100 100 100 100 100 100 100 100 100 100 99 97 94 95 100 100 100 100 100 100 100 100 100 100 97 86 80 78 78 74 76 86 89 92 97 92 82 79 82 82 82 77 73 71 70 72 70 62 52 58 67 58 61 60
100 100 100 100 99 100 100 100 100 96 90 92 96 100 100 100 100 100 100 100 100 100 100 100 100 80 70 65 62 71 79 87 93 96 100 100 87 98 99 92 90 90 80 68 70 73 72 64 51 55 59 49 53 55
100 100 100 99 100 100 100 100 100 98 99 100 100 100 100 100 100 100 100 100 100 100 100 100 100 95 85 80 80 81 86 96 100 100 100 100 100 92 80 80 76 67 59 60 62 65 65 57 53 51 49 44 48 55
100 100 100 100 100 100 100 100 100 100 100 100 100 100 100 100 100 100 100 98 100 100 100 100 100 93 98 99 99 100 100 100 100 100 100 96 86 85 88 76 64 54 48 46 48 51 50 47 41 36 37 44 47 62
100 100 100 100 100 100 99 100 100 100 100 100 100 100 100 100 99 97 98 100 98 100 100 100 100 95 97 98 98 95 95 100 100 96 79 74 74 77 75 65 54 45 41 42 45 48 46 38 34 37 39 46 53 65
92 95 98 92 99 98 100 100 100 100 100 100 100 100 100 100 100 100 99 92 96 100 100 100 100 96 93 95 99 99 95 90 81 74 69 68 70 68 60 50 46 47 48 45 40 34 34 36 36 36 40 45 51 62
89 83 84 85 96 98 100 100 100 100 100 100 100 100 100 100 100 98 97 99 100 99 98 100 100 100 100 97 85 75 72 71 70 69 68 63 56 49 48 49 50 49 43 37 32 32 34 35 32 30 32 38 42 55
100 100 100 100 98 88 94 100 100 100 100 100 100 100 98 100 100 99 100 100 100 100 100 100 99 90 81 77 77 76 73 68 63 54 46 42 42 44 43 45 44 40 34 30 30 29 29 28 28 24 24 30 35 47
99 100 100 98 100 100 100 100 100 100 100 100 98 100 100 100 100 100 99 95 98 94 87 80 73 68 67 69 67 65 60 53 48 43 40 39 42 43 41 37 36 37 33 29 27 25 25 24 22 22 22 25 30 39
100 95 91 100 100 100 100 100 100 100 95 92 92 97 100 99 96 88 82 78 79 81 76 69 65 66 66 62 58 52 49 49 49 49 46 42 39 36 34 33 33 38 32 26 23 23 25 24 22 20 21 24 26 34
98 100 100 100 100 100 100 100 98 97 99 100 100 97 91 83 72 66 78 78 74 74 72 68 63 60 56 55 56 56 55 52 48 43 41 40 37 34 30 27 26 28 28 25 24 23 20 17 16 14 15 23 24 30
100 100 100 100 100 100 100 99 96 96 97 94 86 81 74 66 70 74 69 66 66 64 62 58 53 51 52 55 54 52 49 44 39 35 33 34 34 33 31 29 28 26 23 22 20 18 15 12 11 11 13 19 21 30
100 98 98 99 98 99 98 93 86 82 79 81 82 78 78 79 72 68 67 64 62 60 58 56 56 55 54 50 46 42 39 37 35 33 32 32 32 34 30 27 25 23 20 18 18 13 10 9 8 9 11 15 18 36
97 94 93 90 88 81 79 84 85 90 93 94 92 86 80 74 69 66 64 62 60 57 54 51 49 46 43 42 40 38 35 32 29 25 20 17 16 16 15 13 12 12 13 13 11 9 6 5 6 8 9 11 22 57
99 96 96 97 94 92 98 100 98 95 91 85 80 77 75 72 67 64 63 60 57 55 53 50 47 44 41 38 36 33 24 15 10 8 7 7 7 8 9 9 9 8 7 11 19 17 12 7 6 7 7 17 36 96
95 100 100 97 96 94 92 88 87 84 81 79 78 74 69 67 63 60 58 52 47 41 35 29 23 19 16 15 14 12 11 10 11 10 9 9 10 13 37 64 97 98 90 94 93 77 40 15 8 8 15 28 87 100
96 96 97 98 98 96 93 90 87 83 78 75 70 65 60 55 51 40 33 28 25 22 19 17 15 14 12 12 12 12 11 11 12 13 13 13 33 94 100 100 99 93 93 95 60 49 28 17 12 18 29 82 100 99